Date_Time,Julian_Date,Latitude,Longitude,Instrument_Depth,U,V,Speed,Direction
(yyyy-mm-dd hh:mn:ss UTC),(JD),(+ deg. North),(+ deg. East),(m),(cm/s),(cm/s),(cm/s),(deg True)
1991-05-04 18:00:00 UTC,2448381.250000,23.8283,-82.1967,0600,0.04,7.71,7.7101,0.2973
1991-05-04 19:00:00 UTC,2448381.291667,23.8283,-82.1967,0600,0.24,4.71,4.7161,2.9170
1991-05-04 20:00:00 UTC,2448381.333333,23.8283,-82.1967,0600,0.56,5.88,5.9066,5.4403
1991-05-04 21:00:00 UTC,2448381.375000,23.8283,-82.1967,0600,3.17,10.19,10.6717,17.2804
1991-05-04 22:00:00 UTC,2448381.416667,23.8283,-82.1967,0600,3.80,9.34,10.0834,22.1391
1991-05-04 23:00:00 UTC,2448381.458333,23.8283,-82.1967,0600,8.18,12.41,14.8634,33.3907
1991-05-05 00:00:00 UTC,2448381.500000,23.8283,-82.1967,0600,8.08,13.16,15.4425,31.5492
1991-05-05 01:00:00 UTC,2448381.541667,23.8283,-82.1967,0600,11.88,15.69,19.6802,37.1319
1991-05-05 02:00:00 UTC,2448381.583333,23.8283,-82.1967,0600,14.92,18.51,23.7745,38.8706
1991-05-05 03:00:00 UTC,2448381.625000,23.8283,-82.1967,0600,14.77,20.96,25.6413,35.1714
1991-05-05 04:00:00 UTC,2448381.666667,23.8283,-82.1967,0600,16.56,18.83,25.0759,41.3299
1991-05-05 05:00:00 UTC,2448381.708333,23.8283,-82.1967,0600,19.40,15.44,24.7942,51.4845
1991-05-05 06:00:00 UTC,2448381.750000,23.8283,-82.1967,0600,16.86,15.14,22.6601,48.0767
1991-05-05 07:00:00 UTC,2448381.791667,23.8283,-82.1967,0600,14.41,11.31,18.3184,51.8726
1991-05-05 08:00:00 UTC,2448381.833333,23.8283,-82.1967,0600,7.74,5.49,9.4893,54.6518
1991-05-05 09:00:00 UTC,2448381.875000,23.8283,-82.1967,0600,1.03,0.54,1.1630,62.3332
1991-05-05 10:00:00 UTC,2448381.916667,23.8283,-82.1967,0600,4.80,2.69,5.5024,60.7330
1991-05-05 11:00:00 UTC,2448381.958333,23.8283,-82.1967,0600,6.52,4.04,7.6702,58.2163
1991-05-05 12:00:00 UTC,2448382.000000,23.8283,-82.1967,0600,9.06,4.42,10.0807,63.9942
1991-05-05 13:00:00 UTC,2448382.041667,23.8283,-82.1967,0600,8.20,3.38,8.8693,67.5988
1991-05-05 14:00:00 UTC,2448382.083333,23.8283,-82.1967,0600,9.22,2.30,9.5025,75.9930
1991-05-05 15:00:00 UTC,2448382.125000,23.8283,-82.1967,0600,7.09,0.46,7.1049,86.2878
1991-05-05 16:00:00 UTC,2448382.166667,23.8283,-82.1967,0600,7.08,-0.62,7.1071,95.0047
1991-05-05 17:00:00 UTC,2448382.208333,23.8283,-82.1967,0600,12.21,2.59,12.4817,78.0239
1991-05-05 18:00:00 UTC,2448382.250000,23.8283,-82.1967,0600,2.86,2.94,4.1016,44.2098
1991-05-05 19:00:00 UTC,2448382.291667,23.8283,-82.1967,0600,3.00,5.77,6.5033,27.4713
1991-05-05 20:00:00 UTC,2448382.333333,23.8283,-82.1967,0600,0.61,1.10,1.2578,29.0104
1991-05-05 21:00:00 UTC,2448382.375000,23.8283,-82.1967,0600,0.00,0.10,0.1000,0.0000
1991-05-05 22:00:00 UTC,2448382.416667,23.8283,-82.1967,0600,4.18,8.05,9.0706,27.4408
1991-05-05 23:00:00 UTC,2448382.458333,23.8283,-82.1967,0600,1.86,3.00,3.5298,31.7989
1991-05-06 00:00:00 UTC,2448382.500000,23.8283,-82.1967,0600,1.85,2.50,3.1101,36.5014
1991-05-06 01:00:00 UTC,2448382.541667,23.8283,-82.1967,0600,-1.57,-2.01,2.5505,217.9932
1991-05-06 02:00:00 UTC,2448382.583333,23.8283,-82.1967,0600,0.50,0.75,0.9014,33.6901
1991-05-06 03:00:00 UTC,2448382.625000,23.8283,-82.1967,0600,-2.00,-1.81,2.6974,227.8549
1991-05-06 04:00:00 UTC,2448382.666667,23.8283,-82.1967,0600,0.90,1.36,1.6308,33.4952
1991-05-06 05:00:00 UTC,2448382.708333,23.8283,-82.1967,0600,-1.18,-1.05,1.5795,228.3363
1991-05-06 06:00:00 UTC,2448382.750000,23.8283,-82.1967,0600,-1.53,-1.81,2.3700,220.2080
1991-05-06 07:00:00 UTC,2448382.791667,23.8283,-82.1967,0600,-0.99,-1.39,1.7065,215.4596
1991-05-06 08:00:00 UTC,2448382.833333,23.8283,-82.1967,0600,-2.02,-1.93,2.7938,226.3053
1991-05-06 09:00:00 UTC,2448382.875000,23.8283,-82.1967,0600,5.12,3.23,6.0537,57.7538
1991-05-06 10:00:00 UTC,2448382.916667,23.8283,-82.1967,0600,-2.25,-0.59,2.3261,255.3066
1991-05-06 11:00:00 UTC,2448382.958333,23.8283,-82.1967,0600,-4.61,-0.44,4.6310,264.5479
1991-05-06 12:00:00 UTC,2448383.000000,23.8283,-82.1967,0600,-2.98,0.16,2.9843,273.0733
1991-05-06 13:00:00 UTC,2448383.041667,23.8283,-82.1967,0600,-7.94,-0.47,7.9539,266.6124
1991-05-06 14:00:00 UTC,2448383.083333,23.8283,-82.1967,0600,-6.24,0.22,6.2439,272.0192
1991-05-06 15:00:00 UTC,2448383.125000,23.8283,-82.1967,0600,-5.46,0.03,5.4601,270.3148
1991-05-06 16:00:00 UTC,2448383.166667,23.8283,-82.1967,0600,2.17,-0.96,2.3729,113.8644
1991-05-06 17:00:00 UTC,2448383.208333,23.8283,-82.1967,0600,-2.62,-2.13,3.3766,230.8897
1991-05-06 18:00:00 UTC,2448383.250000,23.8283,-82.1967,0600,1.06,-4.51,4.6329,166.7736
1991-05-06 19:00:00 UTC,2448383.291667,23.8283,-82.1967,0600,-0.36,0.81,0.8864,336.0375
1991-05-06 20:00:00 UTC,2448383.333333,23.8283,-82.1967,0600,-0.50,4.28,4.3091,353.3368
1991-05-06 21:00:00 UTC,2448383.375000,23.8283,-82.1967,0600,-0.04,-1.53,1.5305,181.4976
1991-05-06 22:00:00 UTC,2448383.416667,23.8283,-82.1967,0600,-0.42,-1.29,1.3567,198.0343
1991-05-06 23:00:00 UTC,2448383.458333,23.8283,-82.1967,0600,0.60,1.20,1.3416,26.5651
1991-05-07 00:00:00 UTC,2448383.500000,23.8283,-82.1967,0600,8.08,13.84,16.0260,30.2770
1991-05-07 01:00:00 UTC,2448383.541667,23.8283,-82.1967,0600,3.56,5.45,6.5097,33.1530
1991-05-07 02:00:00 UTC,2448383.583333,23.8283,-82.1967,0600,4.33,4.85,6.5016,41.7579
1991-05-07 03:00:00 UTC,2448383.625000,23.8283,-82.1967,0600,3.27,2.08,3.8755,57.5401
1991-05-07 04:00:00 UTC,2448383.666667,23.8283,-82.1967,0600,5.15,3.26,6.0951,57.6658
1991-05-07 05:00:00 UTC,2448383.708333,23.8283,-82.1967,0600,-0.25,-0.11,0.2731,246.2505
1991-05-07 06:00:00 UTC,2448383.750000,23.8283,-82.1967,0600,-2.67,-0.78,2.7816,253.7151
1991-05-07 07:00:00 UTC,2448383.791667,23.8283,-82.1967,0600,-0.52,-0.12,0.5337,257.0054
1991-05-07 08:00:00 UTC,2448383.833333,23.8283,-82.1967,0600,3.42,0.31,3.4340,84.8207
1991-05-07 09:00:00 UTC,2448383.875000,23.8283,-82.1967,0600,-2.08,-0.43,2.1240,258.3198
1991-05-07 10:00:00 UTC,2448383.916667,23.8283,-82.1967,0600,4.86,-0.25,4.8664,92.9447
1991-05-07 11:00:00 UTC,2448383.958333,23.8283,-82.1967,0600,-4.14,1.66,4.4604,291.8491
1991-05-07 12:00:00 UTC,2448384.000000,23.8283,-82.1967,0600,-3.27,2.30,3.9979,305.1212
1991-05-07 13:00:00 UTC,2448384.041667,23.8283,-82.1967,0600,-1.45,0.54,1.5473,290.4260
1991-05-07 14:00:00 UTC,2448384.083333,23.8283,-82.1967,0600,-2.01,-0.48,2.0665,256.5690
1991-05-07 15:00:00 UTC,2448384.125000,23.8283,-82.1967,0600,-3.35,-1.39,3.6269,247.4652
1991-05-07 16:00:00 UTC,2448384.166667,23.8283,-82.1967,0600,-1.14,-0.85,1.4220,233.2913
1991-05-07 17:00:00 UTC,2448384.208333,23.8283,-82.1967,0600,-2.93,-3.07,4.2438,223.6633
1991-05-07 18:00:00 UTC,2448384.250000,23.8283,-82.1967,0600,1.09,1.57,1.9113,34.7710
1991-05-07 19:00:00 UTC,2448384.291667,23.8283,-82.1967,0600,3.58,4.92,6.0846,36.0412
1991-05-07 20:00:00 UTC,2448384.333333,23.8283,-82.1967,0600,3.91,5.34,6.6184,36.2119
1991-05-07 21:00:00 UTC,2448384.375000,23.8283,-82.1967,0600,2.78,6.07,6.6763,24.6073
1991-05-07 22:00:00 UTC,2448384.416667,23.8283,-82.1967,0600,6.20,9.38,11.2439,33.4639
1991-05-07 23:00:00 UTC,2448384.458333,23.8283,-82.1967,0600,1.14,1.47,1.8602,37.7939
1991-05-08 00:00:00 UTC,2448384.500000,23.8283,-82.1967,0600,5.33,5.57,7.7093,43.7386
1991-05-08 01:00:00 UTC,2448384.541667,23.8283,-82.1967,0600,2.81,1.61,3.2385,60.1893
1991-05-08 02:00:00 UTC,2448384.583333,23.8283,-82.1967,0600,5.79,3.99,7.0317,55.4285
1991-05-08 03:00:00 UTC,2448384.625000,23.8283,-82.1967,0600,12.63,3.31,13.0565,75.3145
1991-05-08 04:00:00 UTC,2448384.666667,23.8283,-82.1967,0600,10.68,-0.50,10.6917,92.6804
1991-05-08 05:00:00 UTC,2448384.708333,23.8283,-82.1967,0600,1.86,-0.18,1.8687,95.5275
1991-05-08 06:00:00 UTC,2448384.750000,23.8283,-82.1967,0600,0.33,-0.11,0.3479,108.4349
1991-05-08 07:00:00 UTC,2448384.791667,23.8283,-82.1967,0600,4.90,-2.51,5.5055,117.1236
1991-05-08 08:00:00 UTC,2448384.833333,23.8283,-82.1967,0600,-3.09,2.15,3.7644,304.8299
1991-05-08 09:00:00 UTC,2448384.875000,23.8283,-82.1967,0600,0.03,-0.07,0.0762,156.8014
1991-05-08 10:00:00 UTC,2448384.916667,23.8283,-82.1967,0600,-3.78,3.85,5.3955,315.5256
1991-05-08 11:00:00 UTC,2448384.958333,23.8283,-82.1967,0600,-2.16,3.97,4.5196,331.4503
1991-05-08 12:00:00 UTC,2448385.000000,23.8283,-82.1967,0600,-0.57,1.15,1.2835,333.6346
1991-05-08 13:00:00 UTC,2448385.041667,23.8283,-82.1967,0600,-11.56,5.09,12.6310,293.7644
1991-05-08 14:00:00 UTC,2448385.083333,23.8283,-82.1967,0600,-8.15,1.77,8.3400,282.2531
1991-05-08 15:00:00 UTC,2448385.125000,23.8283,-82.1967,0600,-1.27,-1.98,2.3523,212.6767
1991-05-08 16:00:00 UTC,2448385.166667,23.8283,-82.1967,0600,-4.46,-5.53,7.1044,218.8865
1991-05-08 17:00:00 UTC,2448385.208333,23.8283,-82.1967,0600,-0.01,0.12,0.1204,355.2364
1991-05-08 18:00:00 UTC,2448385.250000,23.8283,-82.1967,0600,-0.29,-0.21,0.3581,234.0903
1991-05-08 19:00:00 UTC,2448385.291667,23.8283,-82.1967,0600,4.46,4.16,6.0990,46.9932
1991-05-08 20:00:00 UTC,2448385.333333,23.8283,-82.1967,0600,-2.17,-2.01,2.9579,227.1921
1991-05-08 21:00:00 UTC,2448385.375000,23.8283,-82.1967,0600,6.19,7.15,9.4572,40.8839
1991-05-08 22:00:00 UTC,2448385.416667,23.8283,-82.1967,0600,-0.10,-0.05,0.1118,243.4350
1991-05-08 23:00:00 UTC,2448385.458333,23.8283,-82.1967,0600,4.45,3.93,5.9370,48.5508
1991-05-09 00:00:00 UTC,2448385.500000,23.8283,-82.1967,0600,5.79,2.96,6.5027,62.9227
1991-05-09 01:00:00 UTC,2448385.541667,23.8283,-82.1967,0600,3.85,1.33,4.0733,70.9423
1991-05-09 02:00:00 UTC,2448385.583333,23.8283,-82.1967,0600,5.81,1.13,5.9189,78.9938
1991-05-09 03:00:00 UTC,2448385.625000,23.8283,-82.1967,0600,3.09,0.27,3.1018,85.0062
1991-05-09 04:00:00 UTC,2448385.666667,23.8283,-82.1967,0600,7.10,-0.47,7.1155,93.7873
1991-05-09 05:00:00 UTC,2448385.708333,23.8283,-82.1967,0600,2.69,-0.22,2.6990,94.6755
1991-05-09 06:00:00 UTC,2448385.750000,23.8283,-82.1967,0600,-0.96,0.11,0.9663,276.5366
1991-05-09 07:00:00 UTC,2448385.791667,23.8283,-82.1967,0600,-8.51,3.16,9.0778,290.3714
1991-05-09 08:00:00 UTC,2448385.833333,23.8283,-82.1967,0600,1.05,-0.56,1.1900,118.0725
1991-05-09 09:00:00 UTC,2448385.875000,23.8283,-82.1967,0600,-2.17,1.69,2.7505,307.9115
1991-05-09 10:00:00 UTC,2448385.916667,23.8283,-82.1967,0600,-5.15,4.22,6.6581,309.3318
1991-05-09 11:00:00 UTC,2448385.958333,23.8283,-82.1967,0600,4.72,-5.36,7.1420,138.6329
1991-05-09 12:00:00 UTC,2448386.000000,23.8283,-82.1967,0600,2.37,-3.46,4.1939,145.5900
1991-05-09 13:00:00 UTC,2448386.041667,23.8283,-82.1967,0600,1.38,-1.92,2.3645,144.2933
1991-05-09 14:00:00 UTC,2448386.083333,23.8283,-82.1967,0600,-6.58,4.39,7.9100,303.7101
1991-05-09 15:00:00 UTC,2448386.125000,23.8283,-82.1967,0600,-7.44,2.65,7.8979,289.6050
1991-05-09 16:00:00 UTC,2448386.166667,23.8283,-82.1967,0600,-9.40,1.77,9.5652,280.6638
1991-05-09 17:00:00 UTC,2448386.208333,23.8283,-82.1967,0600,-6.86,-3.13,7.5403,245.4743
1991-05-09 18:00:00 UTC,2448386.250000,23.8283,-82.1967,0600,-2.83,-2.49,3.7695,228.6568
1991-05-09 19:00:00 UTC,2448386.291667,23.8283,-82.1967,0600,-3.45,-3.12,4.6515,227.8755
1991-05-09 20:00:00 UTC,2448386.333333,23.8283,-82.1967,0600,-2.63,-2.46,3.6012,226.9129
1991-05-09 21:00:00 UTC,2448386.375000,23.8283,-82.1967,0600,-2.80,-1.89,3.3782,235.9807
1991-05-09 22:00:00 UTC,2448386.416667,23.8283,-82.1967,0600,-4.09,-2.94,5.0370,234.2904
1991-05-09 23:00:00 UTC,2448386.458333,23.8283,-82.1967,0600,-7.55,-2.56,7.9722,251.2696
1991-05-10 00:00:00 UTC,2448386.500000,23.8283,-82.1967,0600,-7.17,-3.44,7.9525,244.3694
1991-05-10 01:00:00 UTC,2448386.541667,23.8283,-82.1967,0600,-6.27,-0.23,6.2742,267.8992
1991-05-10 02:00:00 UTC,2448386.583333,23.8283,-82.1967,0600,-4.09,-0.89,4.1857,257.7236
1991-05-10 03:00:00 UTC,2448386.625000,23.8283,-82.1967,0600,-5.40,-0.72,5.4478,262.4054
1991-05-10 04:00:00 UTC,2448386.666667,23.8283,-82.1967,0600,-2.05,-0.61,2.1388,253.4290
1991-05-10 05:00:00 UTC,2448386.708333,23.8283,-82.1967,0600,-4.09,-1.06,4.2251,255.4704
1991-05-10 06:00:00 UTC,2448386.750000,23.8283,-82.1967,0600,-4.52,-0.93,4.6147,258.3735
1991-05-10 07:00:00 UTC,2448386.791667,23.8283,-82.1967,0600,-5.52,-2.02,5.8780,249.9003
1991-05-10 08:00:00 UTC,2448386.833333,23.8283,-82.1967,0600,2.17,1.46,2.6154,56.0669
1991-05-10 09:00:00 UTC,2448386.875000,23.8283,-82.1967,0600,-0.71,-0.45,0.8406,237.6334
1991-05-10 10:00:00 UTC,2448386.916667,23.8283,-82.1967,0600,-1.52,-0.79,1.7130,242.5374
1991-05-10 11:00:00 UTC,2448386.958333,23.8283,-82.1967,0600,-4.01,-3.06,5.0442,232.6530
1991-05-10 12:00:00 UTC,2448387.000000,23.8283,-82.1967,0600,-1.84,-1.00,2.0942,241.4769
1991-05-10 13:00:00 UTC,2448387.041667,23.8283,-82.1967,0600,-2.70,-1.21,2.9587,245.8606
1991-05-10 14:00:00 UTC,2448387.083333,23.8283,-82.1967,0600,0.30,0.11,0.3195,69.8637
1991-05-10 15:00:00 UTC,2448387.125000,23.8283,-82.1967,0600,3.42,1.36,3.6805,68.3142
1991-05-10 16:00:00 UTC,2448387.166667,23.8283,-82.1967,0600,11.84,1.23,11.9037,84.0691
1991-05-10 17:00:00 UTC,2448387.208333,23.8283,-82.1967,0600,9.97,-1.63,10.1024,99.2852
1991-05-10 18:00:00 UTC,2448387.250000,23.8283,-82.1967,0600,3.70,0.10,3.7014,88.4518
1991-05-10 19:00:00 UTC,2448387.291667,23.8283,-82.1967,0600,7.11,-0.11,7.1109,90.8864
1991-05-10 20:00:00 UTC,2448387.333333,23.8283,-82.1967,0600,0.88,-0.09,0.8846,95.8395
1991-05-10 21:00:00 UTC,2448387.375000,23.8283,-82.1967,0600,0.73,-0.10,0.7368,97.8002
1991-05-10 22:00:00 UTC,2448387.416667,23.8283,-82.1967,0600,2.30,-0.06,2.3008,91.4943
1991-05-10 23:00:00 UTC,2448387.458333,23.8283,-82.1967,0600,-5.28,1.26,5.4283,283.4218
1991-05-11 00:00:00 UTC,2448387.500000,23.8283,-82.1967,0600,-2.04,0.42,2.0828,281.6336
1991-05-11 01:00:00 UTC,2448387.541667,23.8283,-82.1967,0600,-4.53,0.72,4.5869,279.0311
1991-05-11 02:00:00 UTC,2448387.583333,23.8283,-82.1967,0600,-4.61,0.14,4.6121,271.7395
1991-05-11 03:00:00 UTC,2448387.625000,23.8283,-82.1967,0600,-2.51,0.20,2.5180,274.5558
1991-05-11 04:00:00 UTC,2448387.666667,23.8283,-82.1967,0600,4.14,-0.26,4.1482,93.5936
1991-05-11 05:00:00 UTC,2448387.708333,23.8283,-82.1967,0600,5.30,-0.56,5.3295,96.0315
1991-05-11 06:00:00 UTC,2448387.750000,23.8283,-82.1967,0600,6.52,-1.71,6.7405,104.6960
1991-05-11 07:00:00 UTC,2448387.791667,23.8283,-82.1967,0600,7.09,-0.92,7.1494,97.3934
1991-05-11 08:00:00 UTC,2448387.833333,23.8283,-82.1967,0600,6.39,-1.37,6.5352,102.1009
1991-05-11 09:00:00 UTC,2448387.875000,23.8283,-82.1967,0600,0.04,0.13,0.1360,17.1027
1991-05-11 10:00:00 UTC,2448387.916667,23.8283,-82.1967,0600,6.00,-1.16,6.1111,100.9422
1991-05-11 11:00:00 UTC,2448387.958333,23.8283,-82.1967,0600,2.98,-0.81,3.0881,105.2063
1991-05-11 12:00:00 UTC,2448388.000000,23.8283,-82.1967,0600,3.91,-1.42,4.1599,109.9596
1991-05-11 13:00:00 UTC,2448388.041667,23.8283,-82.1967,0600,-2.41,0.75,2.5240,287.2863
1991-05-11 14:00:00 UTC,2448388.083333,23.8283,-82.1967,0600,-4.32,1.00,4.4342,283.0334
1991-05-11 15:00:00 UTC,2448388.125000,23.8283,-82.1967,0600,-4.53,0.74,4.5900,279.2776
1991-05-11 16:00:00 UTC,2448388.166667,23.8283,-82.1967,0600,-1.06,0.16,1.0720,278.5836
1991-05-11 17:00:00 UTC,2448388.208333,23.8283,-82.1967,0600,1.44,-0.39,1.4919,105.1541
1991-05-11 18:00:00 UTC,2448388.250000,23.8283,-82.1967,0600,1.00,0.12,1.0072,83.1572
1991-05-11 19:00:00 UTC,2448388.291667,23.8283,-82.1967,0600,10.57,-1.63,10.6949,98.7665
1991-05-11 20:00:00 UTC,2448388.333333,23.8283,-82.1967,0600,10.66,-1.22,10.7296,96.5289
1991-05-11 21:00:00 UTC,2448388.375000,23.8283,-82.1967,0600,14.18,1.37,14.2460,84.4815
1991-05-11 22:00:00 UTC,2448388.416667,23.8283,-82.1967,0600,17.07,1.64,17.1486,84.5121
1991-05-11 23:00:00 UTC,2448388.458333,23.8283,-82.1967,0600,12.74,2.96,13.0793,76.9200
1991-05-12 00:00:00 UTC,2448388.500000,23.8283,-82.1967,0600,4.82,0.89,4.9015,79.5383
1991-05-12 01:00:00 UTC,2448388.541667,23.8283,-82.1967,0600,4.68,0.64,4.7236,82.2130
1991-05-12 02:00:00 UTC,2448388.583333,23.8283,-82.1967,0600,5.90,0.21,5.9037,87.9615
1991-05-12 03:00:00 UTC,2448388.625000,23.8283,-82.1967,0600,10.28,-0.61,10.2981,93.3959
1991-05-12 04:00:00 UTC,2448388.666667,23.8283,-82.1967,0600,1.25,0.10,1.2540,85.4261
1991-05-12 05:00:00 UTC,2448388.708333,23.8283,-82.1967,0600,9.50,-0.39,9.5080,92.3508
1991-05-12 06:00:00 UTC,2448388.750000,23.8283,-82.1967,0600,11.07,-2.23,11.2924,101.3895
1991-05-12 07:00:00 UTC,2448388.791667,23.8283,-82.1967,0600,12.45,-1.00,12.4901,94.5922
1991-05-12 08:00:00 UTC,2448388.833333,23.8283,-82.1967,0600,15.50,0.30,15.5029,88.8912
1991-05-12 09:00:00 UTC,2448388.875000,23.8283,-82.1967,0600,11.19,-1.45,11.2836,97.3832
1991-05-12 10:00:00 UTC,2448388.916667,23.8283,-82.1967,0600,15.08,-3.52,15.4854,103.1388
1991-05-12 11:00:00 UTC,2448388.958333,23.8283,-82.1967,0600,10.97,-2.79,11.3192,104.2695
1991-05-12 12:00:00 UTC,2448389.000000,23.8283,-82.1967,0600,11.18,-1.73,11.3131,98.7962
1991-05-12 13:00:00 UTC,2448389.041667,23.8283,-82.1967,0600,9.21,-2.46,9.5329,104.9546
1991-05-12 14:00:00 UTC,2448389.083333,23.8283,-82.1967,0600,8.67,-2.15,8.9326,103.9273
1991-05-12 15:00:00 UTC,2448389.125000,23.8283,-82.1967,0600,3.22,-0.52,3.2617,99.1735
1991-05-12 16:00:00 UTC,2448389.166667,23.8283,-82.1967,0600,11.14,-2.58,11.4349,103.0397
1991-05-12 17:00:00 UTC,2448389.208333,23.8283,-82.1967,0600,18.28,-7.25,19.6652,111.6337
1991-05-12 18:00:00 UTC,2448389.250000,23.8283,-82.1967,0600,16.94,-6.18,18.0321,110.0428
1991-05-12 19:00:00 UTC,2448389.291667,23.8283,-82.1967,0600,15.81,-6.70,17.1711,112.9664
1991-05-12 20:00:00 UTC,2448389.333333,23.8283,-82.1967,0600,23.38,-6.59,24.2910,105.7413
1991-05-12 21:00:00 UTC,2448389.375000,23.8283,-82.1967,0600,12.15,-3.62,12.6778,106.5910
1991-05-12 22:00:00 UTC,2448389.416667,23.8283,-82.1967,0600,24.30,-3.30,24.5231,97.7336
1991-05-12 23:00:00 UTC,2448389.458333,23.8283,-82.1967,0600,16.67,0.37,16.6741,88.7285
1991-05-13 00:00:00 UTC,2448389.500000,23.8283,-82.1967,0600,9.38,1.28,9.4669,82.2294
1991-05-13 01:00:00 UTC,2448389.541667,23.8283,-82.1967,0600,10.64,1.05,10.6917,84.3641
1991-05-13 02:00:00 UTC,2448389.583333,23.8283,-82.1967,0600,11.31,-0.02,11.3100,90.1013
1991-05-13 03:00:00 UTC,2448389.625000,23.8283,-82.1967,0600,11.24,-1.28,11.3126,96.4968
1991-05-13 04:00:00 UTC,2448389.666667,23.8283,-82.1967,0600,18.61,-3.61,18.9569,100.9780
1991-05-13 05:00:00 UTC,2448389.708333,23.8283,-82.1967,0600,18.14,-5.53,18.9642,106.9539
1991-05-13 06:00:00 UTC,2448389.750000,23.8283,-82.1967,0600,19.97,-6.30,20.9402,107.5091
1991-05-13 07:00:00 UTC,2448389.791667,23.8283,-82.1967,0600,14.61,-3.62,15.0518,103.9162
1991-05-13 08:00:00 UTC,2448389.833333,23.8283,-82.1967,0600,15.86,-6.27,17.0544,111.5706
1991-05-13 09:00:00 UTC,2448389.875000,23.8283,-82.1967,0600,13.24,-5.10,14.1883,111.0665
1991-05-13 10:00:00 UTC,2448389.916667,23.8283,-82.1967,0600,17.30,-6.51,18.4843,110.6213
1991-05-13 11:00:00 UTC,2448389.958333,23.8283,-82.1967,0600,22.25,-6.96,23.3132,107.3701
1991-05-13 12:00:00 UTC,2448390.000000,23.8283,-82.1967,0600,19.30,-5.86,20.1700,106.8897
1991-05-13 13:00:00 UTC,2448390.041667,23.8283,-82.1967,0600,12.92,-4.59,13.7111,109.5582
1991-05-13 14:00:00 UTC,2448390.083333,23.8283,-82.1967,0600,9.18,-2.51,9.5170,105.2921
1991-05-13 15:00:00 UTC,2448390.125000,23.8283,-82.1967,0600,8.46,-0.71,8.4897,94.7973
1991-05-13 16:00:00 UTC,2448390.166667,23.8283,-82.1967,0600,18.97,0.59,18.9792,88.2186
1991-05-13 17:00:00 UTC,2448390.208333,23.8283,-82.1967,0600,27.03,1.66,27.0809,86.4857
1991-05-13 18:00:00 UTC,2448390.250000,23.8283,-82.1967,0600,28.98,2.41,29.0800,85.2462
1991-05-13 19:00:00 UTC,2448390.291667,23.8283,-82.1967,0600,34.03,3.12,34.1727,84.7615
1991-05-13 20:00:00 UTC,2448390.333333,23.8283,-82.1967,0600,30.40,1.92,30.4606,86.3861
1991-05-13 21:00:00 UTC,2448390.375000,23.8283,-82.1967,0600,30.80,-0.64,30.8066,91.1904
1991-05-13 22:00:00 UTC,2448390.416667,23.8283,-82.1967,0600,31.41,-4.09,31.6752,97.4189
1991-05-13 23:00:00 UTC,2448390.458333,23.8283,-82.1967,0600,29.26,-2.65,29.3798,95.1750
1991-05-14 00:00:00 UTC,2448390.500000,23.8283,-82.1967,0600,27.18,-5.29,27.6900,101.0137
1991-05-14 01:00:00 UTC,2448390.541667,23.8283,-82.1967,0600,24.57,-5.09,25.0917,101.7040
1991-05-14 02:00:00 UTC,2448390.583333,23.8283,-82.1967,0600,12.26,-2.49,12.5103,101.4806
1991-05-14 03:00:00 UTC,2448390.625000,23.8283,-82.1967,0600,11.08,-2.28,11.3122,101.6278
1991-05-14 04:00:00 UTC,2448390.666667,23.8283,-82.1967,0600,8.87,-0.84,8.9097,95.4098
1991-05-14 05:00:00 UTC,2448390.708333,23.8283,-82.1967,0600,10.08,-0.42,10.0887,92.3859
1991-05-14 06:00:00 UTC,2448390.750000,23.8283,-82.1967,0600,13.65,-0.95,13.6830,93.9812
1991-05-14 07:00:00 UTC,2448390.791667,23.8283,-82.1967,0600,11.87,-0.90,11.9041,94.3359
1991-05-14 08:00:00 UTC,2448390.833333,23.8283,-82.1967,0600,16.76,-4.23,17.2856,104.1649
1991-05-14 09:00:00 UTC,2448390.875000,23.8283,-82.1967,0600,16.14,-3.73,16.5654,103.0128
1991-05-14 10:00:00 UTC,2448390.916667,23.8283,-82.1967,0600,18.50,-4.09,18.9467,102.4665
1991-05-14 11:00:00 UTC,2448390.958333,23.8283,-82.1967,0600,19.00,-3.99,19.4144,101.8598
1991-05-14 12:00:00 UTC,2448391.000000,23.8283,-82.1967,0600,13.96,-2.99,14.2766,102.0891
1991-05-14 13:00:00 UTC,2448391.041667,23.8283,-82.1967,0600,14.24,-1.33,14.3020,95.3359
1991-05-14 14:00:00 UTC,2448391.083333,23.8283,-82.1967,0600,7.15,-0.39,7.1606,93.1221
1991-05-14 15:00:00 UTC,2448391.125000,23.8283,-82.1967,0600,8.32,-0.39,8.3291,92.6838
1991-05-14 16:00:00 UTC,2448391.166667,23.8283,-82.1967,0600,7.70,-0.39,7.7099,92.8995
1991-05-14 17:00:00 UTC,2448391.208333,23.8283,-82.1967,0600,2.98,0.52,3.0250,80.1017
1991-05-14 18:00:00 UTC,2448391.250000,23.8283,-82.1967,0600,8.17,1.50,8.3066,79.5964
1991-05-14 19:00:00 UTC,2448391.291667,23.8283,-82.1967,0600,16.34,5.59,17.2697,71.1139
1991-05-14 20:00:00 UTC,2448391.333333,23.8283,-82.1967,0600,21.31,7.69,22.6551,70.1573
1991-05-14 21:00:00 UTC,2448391.375000,23.8283,-82.1967,0600,24.68,9.60,26.4814,68.7450
1991-05-14 22:00:00 UTC,2448391.416667,23.8283,-82.1967,0600,29.90,12.41,32.3731,67.4591
1991-05-14 23:00:00 UTC,2448391.458333,23.8283,-82.1967,0600,27.17,15.10,31.0841,60.9364
1991-05-15 00:00:00 UTC,2448391.500000,23.8283,-82.1967,0600,27.65,10.64,29.6265,68.9528
1991-05-15 01:00:00 UTC,2448391.541667,23.8283,-82.1967,0600,25.36,10.23,27.3456,68.0313
1991-05-15 02:00:00 UTC,2448391.583333,23.8283,-82.1967,0600,19.27,8.03,20.8762,67.3780
1991-05-15 03:00:00 UTC,2448391.625000,23.8283,-82.1967,0600,18.68,8.86,20.6747,64.6248
1991-05-15 04:00:00 UTC,2448391.666667,23.8283,-82.1967,0600,11.43,5.01,12.4798,66.3312
1991-05-15 05:00:00 UTC,2448391.708333,23.8283,-82.1967,0600,16.21,10.03,19.0621,58.2527
1991-05-15 06:00:00 UTC,2448391.750000,23.8283,-82.1967,0600,20.74,8.66,22.4754,67.3370
1991-05-15 07:00:00 UTC,2448391.791667,23.8283,-82.1967,0600,18.30,7.14,19.6436,68.6861
1991-05-15 08:00:00 UTC,2448391.833333,23.8283,-82.1967,0600,21.07,4.17,21.4787,78.8052
1991-05-15 09:00:00 UTC,2448391.875000,23.8283,-82.1967,0600,21.31,0.81,21.3254,87.8232
1991-05-15 10:00:00 UTC,2448391.916667,23.8283,-82.1967,0600,17.68,-2.34,17.8342,97.5394
1991-05-15 11:00:00 UTC,2448391.958333,23.8283,-82.1967,0600,16.51,-2.44,16.6893,98.4068
1991-05-15 12:00:00 UTC,2448392.000000,23.8283,-82.1967,0600,17.53,-2.35,17.6868,97.6353
1991-05-15 13:00:00 UTC,2448392.041667,23.8283,-82.1967,0600,12.92,-0.86,12.9486,93.8082
1991-05-15 14:00:00 UTC,2448392.083333,23.8283,-82.1967,0600,13.56,0.67,13.5765,87.1713
1991-05-15 15:00:00 UTC,2448392.125000,23.8283,-82.1967,0600,7.26,0.47,7.2752,86.2959
1991-05-15 16:00:00 UTC,2448392.166667,23.8283,-82.1967,0600,12.02,3.46,12.5081,73.9413
1991-05-15 17:00:00 UTC,2448392.208333,23.8283,-82.1967,0600,3.76,1.60,4.0863,66.9487
1991-05-15 18:00:00 UTC,2448392.250000,23.8283,-82.1967,0600,10.13,3.31,10.6571,71.9051
1991-05-15 19:00:00 UTC,2448392.291667,23.8283,-82.1967,0600,10.15,3.31,10.6761,71.9384
1991-05-15 20:00:00 UTC,2448392.333333,23.8283,-82.1967,0600,23.18,10.29,25.3613,66.0627
1991-05-15 21:00:00 UTC,2448392.375000,23.8283,-82.1967,0600,23.64,12.63,26.8024,61.8860
1991-05-15 22:00:00 UTC,2448392.416667,23.8283,-82.1967,0600,22.91,9.45,24.7825,67.5846
1991-05-15 23:00:00 UTC,2448392.458333,23.8283,-82.1967,0600,23.52,8.63,25.0533,69.8508